Flag for Indonesia Weather past 2 weeks in Manado, North Sulawesi, Indonesia

Now
84 °F

Passing clouds.


Feels Like: 90 °F
Forecast: 76 / 88 °F
Wind: 7 mph from Southwest

Location: Menado / Dr. Sam Ratulangi

Current Time: Aug 28, 2014 at 10:00:04 AM

Latest Report: Aug 28, 2014 at 9:00 AM


Visibility: N/A

Pressure: 29.86 "Hg

Humidity: 66%

Dew point: 72 °F

Location of ManadoLocation

Historic Weather in Manado — Graph

°F

Manado temperature yesterday

Maximum temperature yesterday: 90 °F (at 11:30 AM)
Minimum temperature yesterday: 72 °F (at 3:30 AM)
Average temperature yesterday: 77 °F

Past Weeks' High & Low Weather Summary

 TemperatureHumidityPressure
High91 °F (Aug 21, 1:00 PM)100% (Aug 15, 6:00 AM)29.95 "Hg (Aug 15, 6:00 AM)
Low70 °F (Aug 20, 4:30 AM)43% (Aug 22, 3:30 PM)29.74 "Hg (Aug 25, 2:30 PM)
Average81 °F72%29.85 "Hg
* Reported Aug 13 8:00 AM — Aug 28 8:30 AM, Manado, Weather by CustomWeather, © 2014

Note: Actual official high and low records may vary slightly from our data, if they occured in-between our weather recording intervals... More about our weather records

Advertising

Manado weather history for previous 24 hours

 ConditionsComfort  
Time TempWeatherWind HumidityBarometerVisibility
8:30 AM
Aug 28
84 °FPassing clouds.5 mph66%29.86 "HgN/A
8:00 AM84 °FPassing clouds.6 mph66%29.86 "HgN/A
7:30 AM81 °FPassing clouds.3 mph74%29.86 "HgN/A
7:00 AM77 °FPassing clouds.6 mph83%29.83 "HgN/A
6:30 AM73 °FPassing clouds.3 mph94%29.83 "HgN/A
6:00 AM72 °FPassing clouds.No wind94%29.83 "HgN/A
5:30 AM72 °FPassing clouds.1 mph94%29.83 "HgN/A
5:00 AM72 °FPassing clouds.2 mph94%29.83 "HgN/A
11:00 PM
Aug 27
73 °FPassing clouds.No wind94%29.86 "HgN/A
10:30 PM73 °FPassing clouds.2 mph94%29.86 "HgN/A
10:00 PM73 °FPassing clouds.2 mph94%29.86 "HgN/A
9:30 PM73 °FPassing clouds.No wind94%29.86 "HgN/A
9:00 PM73 °FPassing clouds.3 mph94%29.86 "HgN/A
8:30 PM73 °FPassing clouds.No wind94%29.86 "HgN/A
8:00 PM73 °FPassing clouds.3 mph94%29.83 "HgN/A
7:30 PM73 °FPassing clouds.2 mph94%29.83 "HgN/A
6:00 PM75 °FPassing clouds.3 mph94%29.83 "Hg6 mi
5:30 PM75 °FScattered clouds.3 mph94%29.80 "Hg6 mi
5:00 PM75 °FScattered clouds.3 mph94%29.80 "Hg6 mi
4:30 PM75 °FLight rain. Scattered clouds.5 mph89%29.80 "Hg5 mi
4:00 PM75 °FLight rain. Scattered clouds.6 mph94%29.80 "Hg5 mi
3:30 PM77 °FThunderstorms. Scattered clouds.3 mph89%29.80 "Hg5 mi
3:00 PM77 °FThunderstorms. Scattered clouds.8 mph89%29.80 "Hg4 mi
2:30 PM77 °FLight rain. Scattered clouds.5 mph89%29.77 "Hg5 mi
2:00 PM77 °FThunderstorms. Scattered clouds.5 mph89%29.77 "Hg4 mi
1:30 PM75 °FThunderstorms. Scattered clouds.3 mph94%29.77 "Hg4 mi
1:00 PM77 °FRain. Scattered clouds.12 mph94%29.80 "Hg4 mi
12:30 PM84 °FLight rain. Scattered clouds.8 mph70%29.80 "Hg5 mi
12:00 PM86 °FScattered clouds.8 mph66%29.80 "Hg6 mi
11:30 AM90 °FScattered clouds.6 mph55%29.80 "HgN/A
11:00 AM88 °FScattered clouds.8 mph55%29.80 "HgN/A
10:30 AM86 °FScattered clouds.9 mph62%29.83 "HgN/A
10:00 AM88 °FScattered clouds.10 mph55%29.83 "HgN/A
Weather by CustomWeather, © 2014

See weather overviewHow to use our weather pages